Vorticity
7 7 7 6 6 6 4 5 4 3 3 2 3 4 3 4 4 4 5 4 6 7 6 6 6 7 7 6 6 5 5 5 4 4 5 6 6 5 7 7 5 6 8 9 10 12 12 9 7 9 11 12 13 13 11 9 8 9 9 8 5 3 2 3 3 3 4 5 6 6 6 7 7 7 7 6 6 5 5 5 5 7 8 9 9 8
5 5 6 6 6 5 4 5 4 3 3 2 4 4 3 5 5 5 5 5 6 7 7 6 6 7 6 6 6 5 3 5 5 5 6 6 6 7 7 6 6 8 10 12 13 11 9 8 10 12 13 13 12 9 6 6 7 8 7 6 4 3 4 4 3 2 4 5 6 6 5 6 6 6 6 5 5 4 5 6 6 7 8 9 9 8
4 5 6 5 5 4 4 5 4 3 3 3 4 4 4 5 6 6 4 4 6 7 6 6 7 6 5 4 4 5 5 5 5 5 6 7 7 7 6 7 9 12 13 13 11 8 8 10 12 12 12 11 8 4 5 6 7 7 7 5 3 4 4 4 4 3 3 4 6 6 5 6 6 6 6 5 5 4 4 5 5 6 7 8 8 8
4 5 4 3 4 4 5 5 4 3 3 3 4 5 5 5 6 6 6 5 6 6 6 6 7 5 4 4 4 4 4 5 5 6 7 6 6 6 7 10 12 12 12 10 9 8 10 11 12 12 11 6 3 4 6 7 7 7 4 3 3 4 5 5 5 4 3 5 6 6 6 6 6 5 6 5 5 5 4 5 6 7 6 6 6 6
4 4 3 3 5 6 5 4 5 5 4 4 4 5 6 5 5 6 6 6 5 6 6 5 5 4 4 6 6 6 6 6 7 6 5 5 6 8 10 11 9 8 8 8 9 9 11 13 13 10 5 2 3 5 6 6 5 4 3 4 5 6 6 6 5 5 5 6 6 6 6 6 5 5 5 5 5 5 5 5 6 7 6 6 6 6
4 5 5 6 6 6 6 5 6 6 5 4 5 6 5 5 6 6 7 7 6 7 5 3 5 3 5 8 8 9 9 6 6 6 5 7 10 12 10 8 7 8 8 8 9 11 13 13 9 5 4 5 5 5 4 4 5 6 6 7 6 6 6 6 6 6 6 6 6 6 6 5 5 5 4 5 5 5 6 5 6 6 6 7 6 6
5 6 7 7 6 6 7 6 6 7 6 6 6 6 6 7 7 6 7 6 6 6 4 5 7 6 7 7 8 10 7 5 6 7 8 12 13 10 8 8 9 9 9 9 11 12 11 8 6 6 6 5 5 5 6 7 8 8 7 6 6 7 7 7 7 7 6 5 5 5 5 5 5 5 5 5 5 5 6 5 6 7 7 8 7 8
6 6 7 7 7 7 7 7 7 7 7 7 7 7 7 8 7 7 7 6 5 4 3 4 5 7 8 7 7 6 3 5 8 9 11 13 9 7 9 10 10 10 11 12 11 10 8 7 7 5 4 5 7 8 8 8 8 7 8 8 8 8 7 7 6 5 5 5 5 5 6 6 6 6 6 6 6 6 7 7 8 8 7 7 7 7
7 6 7 8 8 8 7 7 8 8 8 8 8 8 7 6 6 5 4 4 4 5 6 6 6 7 7 8 8 3 2 7 10 11 12 10 8 10 11 11 11 12 12 12 10 9 8 6 5 5 6 7 8 8 8 8 8 8 8 8 7 7 6 6 6 6 7 6 6 6 7 7 7 8 7 7 7 7 8 8 8 8 7 8 8 8
8 7 8 8 8 8 8 9 9 9 9 8 7 7 6 6 5 5 5 6 7 6 6 6 7 6 4 8 10 8 11 14 12 11 11 10 11 13 12 11 12 11 11 11 9 7 6 5 7 8 8 8 8 9 9 8 8 7 7 6 6 7 6 7 7 7 7 7 7 7 7 8 7 7 7 8 8 8 8 8 8 8 8 9 10 9
9 9 9 9 9 9 9 9 9 8 7 7 6 6 6 5 4 4 5 5 6 5 4 4 5 4 6 10 8 7 14 16 12 13 13 12 13 11 11 11 11 11 10 9 7 6 6 7 9 8 8 8 8 8 7 7 7 7 7 7 7 7 7 7 6 7 7 7 8 7 7 7 7 7 7 7 7 7 8 10 11 12 12 12 11 11
9 10 9 9 9 9 8 8 7 6 7 7 7 7 6 6 6 6 5 4 4 5 6 6 5 6 11 13 8 8 14 12 11 14 13 13 11 9 10 10 9 10 8 7 6 7 7 7 7 6 7 7 7 7 7 7 7 7 7 7 7 7 6 6 6 7 7 6 6 6 6 7 7 7 7 10 13 15 18 18 19 19 18 18 17 17
8 8 9 9 8 8 7 6 6 6 6 6 7 7 6 7 7 5 6 7 7 7 6 6 7 10 14 12 10 14 16 13 12 12 10 9 9 8 9 9 9 8 6 6 6 5 6 6 6 7 7 8 8 7 7 7 7 7 7 6 6 6 6 6 6 6 6 6 7 6 6 7 10 14 18 21 21 20 18 16 14 13 12 13 12 13
8 7 7 7 7 7 6 6 7 6 5 5 5 6 6 7 6 5 6 7 7 8 7 8 10 14 15 13 13 15 14 13 12 9 8 8 8 9 9 9 9 6 5 5 4 6 7 7 8 8 8 8 7 7 7 7 7 6 6 5 5 6 6 6 5 5 6 6 6 7 11 16 20 22 20 18 14 11 10 9 9 10 10 12 12 13
7 7 7 7 7 7 6 6 7 6 6 6 6 6 7 8 8 8 9 9 8 9 9 12 14 16 17 16 15 14 11 11 10 7 8 9 8 8 8 7 6 4 5 6 7 8 7 8 8 8 8 8 7 7 7 6 6 5 5 5 6 5 5 5 5 6 6 6 9 15 20 22 19 15 11 9 9 8 10 10 11 13 14 16 17 18
5 5 6 6 6 5 6 6 5 6 7 6 6 7 9 9 9 9 10 12 13 12 11 13 15 16 16 13 11 10 10 9 8 7 7 7 6 6 6 5 5 5 7 7 8 8 8 9 9 8 8 8 7 7 6 6 6 6 6 5 5 4 5 6 7 8 9 13 19 22 21 16 11 9 8 9 11 11 13 13 15 17 18 20 20 19
6 5 4 5 6 6 6 6 6 7 7 8 9 10 11 11 11 13 13 14 14 14 14 15 15 13 12 11 10 10 10 9 7 6 5 5 6 7 6 6 6 7 7 7 8 9 9 9 8 8 8 7 7 6 6 6 6 6 6 5 6 6 7 9 10 13 18 22 24 21 16 12 10 9 10 11 13 14 15 16 18 20 21 22 21 19
6 5 4 5 7 8 7 8 9 9 10 12 13 13 14 13 14 14 13 13 13 12 12 11 11 10 10 10 9 8 8 7 5 4 5 8 9 7 6 6 7 8 9 9 10 9 8 8 8 8 7 6 6 5 5 6 5 6 6 7 8 9 10 12 16 22 26 24 20 16 12 10 9 10 11 13 14 14 15 16 18 20 20 19 20 20
5 7 6 5 7 8 8 10 11 12 14 15 15 14 14 13 13 11 10 12 12 10 10 10 9 10 9 8 8 9 7 5 4 5 8 10 8 5 6 9 10 10 10 9 8 8 8 8 7 6 5 5 5 5 6 6 7 7 8 8 9 10 14 20 25 26 24 19 14 11 9 8 9 10 11 12 13 13 14 15 18 18 16 16 19 22
6 8 9 8 8 9 12 14 14 15 15 14 12 12 11 11 11 10 11 13 11 10 10 8 7 7 6 7 10 10 6 4 5 7 8 8 7 6 8 10 10 9 8 7 7 7 7 6 6 5 5 6 6 7 7 7 8 8 8 8 9 12 18 24 25 22 16 12 10 9 8 7 7 7 9 11 11 11 13 14 17 17 14 14 17 19
7 8 10 11 12 13 15 16 15 14 13 11 10 11 11 11 11 10 10 11 10 9 7 6 6 7 7 9 8 5 3 4 6 7 8 8 7 8 9 9 8 7 7 7 7 6 5 5 6 6 6 7 7 7 7 7 7 7 7 8 10 15 20 22 22 19 14 10 9 8 6 5 5 6 7 8 8 10 12 13 17 18 13 13 15 14
9 10 12 14 16 17 16 14 12 10 9 10 10 11 11 10 10 10 9 8 7 6 6 6 6 6 8 7 4 3 5 6 8 10 9 7 8 10 10 8 7 7 7 6 6 6 6 6 6 6 6 7 7 6 6 6 6 7 8 9 13 19 22 23 22 18 13 9 8 6 5 4 4 5 5 6 7 10 11 11 14 18 15 13 15 15
11 13 15 16 16 15 13 11 10 10 10 11 11 11 10 9 8 7 6 6 5 5 7 6 4 6 7 4 3 8 9 7 8 9 7 8 10 9 7 6 6 6 6 6 7 7 6 6 6 7 6 6 6 6 6 7 7 8 8 11 18 24 25 24 21 15 11 10 9 6 6 5 4 4 5 5 6 8 10 10 11 17 18 15 16 18
15 16 16 14 12 11 9 8 9 10 10 10 10 8 7 6 6 6 6 7 6 6 7 5 4 9 7 4 8 11 8 6 8 8 7 9 8 5 5 7 7 7 7 6 6 6 6 6 5 6 6 6 6 6 6 7 7 8 9 14 22 25 24 23 19 13 10 10 9 6 4 4 3 4 5 5 6 7 8 9 8 13 19 18 17 18
16 16 14 12 11 10 11 11 10 9 7 7 6 6 6 7 7 7 7 6 5 5 5 5 6 9 7 8 13 11 5 7 9 9 9 7 6 6 8 8 7 6 6 5 5 4 4 5 5 5 6 6 6 5 6 6 7 8 11 16 22 23 23 23 17 12 10 9 6 2 0 2 4 4 4 4 4 5 6 8 8 9 15 19 19 18
14 13 12 11 12 12 12 12 11 10 9 9 9 7 8 7 6 6 6 6 6 6 7 8 6 7 10 12 11 6 4 7 8 6 6 6 8 9 8 6 5 4 4 4 5 5 5 5 5 5 5 5 5 5 5 6 7 10 13 17 22 23 23 22 15 9 9 7 3 2 3 5 6 6 5 4 4 4 5 6 7 7 9 15 20 19
12 11 11 11 11 11 10 9 9 9 9 9 9 8 7 6 5 6 7 9 9 7 10 11 6 8 12 8 4 4 6 8 7 7 7 7 8 6 4 4 4 4 4 4 5 5 5 5 5 4 4 4 5 4 5 6 8 10 13 15 18 19 20 20 15 10 9 7 6 7 8 7 6 4 3 3 3 4 4 4 5 6 7 10 17 20
12 11 10 9 10 10 9 8 7 7 7 6 5 5 5 5 7 10 12 13 11 8 10 10 8 9 10 6 4 8 8 6 5 6 7 7 6 4 3 4 3 3 4 4 4 5 5 5 4 4 4 3 3 4 5 6 8 11 13 14 15 16 18 20 17 12 9 8 8 7 5 3 2 2 2 2 3 3 4 5 4 5 6 7 12 19
11 11 10 10 11 10 8 7 5 5 4 3 4 5 6 9 11 12 13 12 10 9 9 9 8 8 7 6 7 7 5 6 7 8 8 7 6 4 3 2 3 3 4 4 4 4 3 3 3 3 3 3 3 5 6 7 11 14 15 16 15 16 18 18 17 13 9 8 7 4 4 4 5 4 3 2 3 3 4 4 4 4 5 6 8 15
10 11 11 10 10 8 5 4 3 3 4 4 6 8 9 10 11 12 13 12 10 9 8 8 7 7 7 7 7 6 6 8 9 7 6 5 3 3 2 3 4 4 4 4 4 3 3 3 3 3 3 4 5 7 10 13 16 17 17 17 16 16 17 17 15 14 11 9 8 6 5 6 5 5 4 2 2 3 3 3 3 4 5 5 7 10
10 10 9 7 6 5 3 3 4 5 6 7 10 11 11 12 12 13 14 11 8 7 6 6 7 7 6 5 5 7 8 9 7 4 3 1 0 2 4 5 5 3 4 4 3 3 3 3 3 4 5 7 9 11 13 15 15 15 15 16 17 17 17 16 15 14 14 13 12 9 6 4 4 4 4 3 3 3 3 3 3 5 5 5 6 7
7 6 4 4 4 4 4 6 8 8 8 11 12 13 13 13 12 12 12 10 7 6 5 7 7 6 5 5 5 6 5 3 3 2 3 2 2 3 4 4 4 4 4 4 3 3 3 2 3 4 5 7 8 8 10 11 10 11 13 15 17 16 16 16 15 15 16 16 16 14 10 6 5 6 5 4 3 3 3 3 3 4 4 4 5 6
4 3 3 4 5 6 8 10 10 9 10 12 12 13 13 12 11 10 9 8 7 7 8 9 8 6 6 7 6 4 2 0 0 2 4 6 5 4 3 3 4 3 3 3 3 3 2 2 3 4 7 10 12 15 17 18 19 21 22 21 20 19 17 16 16 15 17 18 18 15 12 7 6 7 7 6 6 5 3 2 3 4 4 5 5 5
3 4 5 6 8 10 11 12 11 11 12 12 12 14 12 9 8 7 7 8 7 5 6 7 5 4 4 5 4 4 4 3 2 3 4 4 4 3 3 3 3 2 3 3 3 3 3 6 10 14 19 21 23 26 26 27 28 28 26 24 22 19 17 16 16 16 17 18 18 16 14 11 9 9 8 6 7 7 6 4 4 4 4 4 4 5
5 7 9 10 11 12 11 11 10 9 10 12 13 13 10 8 8 7 8 10 6 2 3 3 2 2 3 3 3 3 4 4 3 4 4 3 3 3 3 4 4 4 3 4 6 9 14 19 23 27 29 30 31 31 31 30 29 27 25 23 20 18 17 16 16 16 16 15 15 15 14 14 12 10 10 8 6 6 8 8 7 5 5 5 5 5
10 11 11 11 12 11 9 10 11 8 10 13 11 6 6 7 7 5 4 2 -2 -0 4 3 1 2 2 3 3 3 4 4 3 4 4 3 3 3 4 5 6 6 8 11 15 22 28 31 32 32 32 32 31 29 27 26 24 23 22 21 19 18 17 17 17 16 15 14 13 13 14 14 13 12 12 11 8 6 6 7 6 6 6 5 5 5
11 11 10 10 10 9 9 11 12 9 10 12 8 5 7 7 5 4 5 3 1 4 5 2 2 3 3 3 4 4 5 5 4 4 4 3 4 5 6 7 10 15 20 25 27 29 31 32 31 29 27 25 23 20 18 18 17 17 18 17 16 16 15 15 15 14 14 14 13 13 13 13 14 14 13 13 13 10 8 6 6 6 6 6 5 5
11 11 10 10 10 10 11 12 10 7 8 10 8 7 7 6 5 6 6 5 5 6 5 4 5 5 4 4 4 4 3 3 2 3 4 3 4 6 10 14 21 27 32 34 33 31 29 27 24 22 20 17 16 14 13 13 12 12 13 13 13 13 13 12 13 12 13 13 13 14 14 14 15 15 14 13 13 13 11 9 8 7 7 7 5 5
11 10 10 11 12 11 11 11 8 7 9 10 8 5 5 5 6 4 2 2 4 4 5 6 6 5 4 4 3 2 3 3 2 4 6 9 14 21 28 32 35 36 34 33 32 29 26 22 18 16 15 14 14 14 14 14 14 13 13 13 12 12 12 12 12 13 13 13 14 15 14 13 13 12 13 13 12 12 11 9 9 9 8 7 6 6
10 10 11 13 11 9 9 9 8 8 8 8 7 5 4 4 3 2 4 6 6 3 3 5 4 3 3 2 2 3 6 8 11 16 22 27 32 37 39 38 37 34 30 26 22 19 18 17 15 13 12 12 12 12 12 13 14 14 14 14 14 14 14 14 14 14 14 14 14 13 11 11 10 10 11 12 11 10 9 8 9 9 9 8 7 6
10 10 12 11 9 8 9 9 8 6 5 5 5 5 4 2 1 3 6 9 8 5 3 2 2 2 2 3 6 10 13 17 21 28 34 36 38 38 35 30 26 22 17 14 12 11 11 12 12 10 10 10 9 9 9 9 10 10 11 11 12 13 14 14 14 14 14 14 12 10 9 9 9 10 10 11 11 10 9 10 10 10 10 9 7 6
9 10 10 9 9 8 8 8 6 4 3 3 2 3 5 5 6 7 6 5 4 2 1 1 4 5 6 8 12 17 21 26 29 32 34 34 32 28 23 17 13 10 9 9 9 9 9 8 8 8 8 8 8 7 7 7 7 7 7 8 8 8 9 10 10 12 13 14 14 12 11 11 11 11 12 11 11 11 10 11 12 11 10 9 6 7
10 9 9 10 9 8 7 7 5 3 4 6 5 6 8 7 6 6 3 2 2 1 2 5 8 11 13 18 25 29 30 33 34 32 30 26 21 15 10 8 8 8 8 8 7 7 6 6 5 6 6 6 6 6 6 5 5 6 5 6 6 6 7 8 8 9 10 11 13 13 13 13 13 13 13 12 12 12 12 11 11 10 10 8 6 7
10 9 10 10 8 7 5 4 3 4 8 10 10 9 8 5 2 2 2 3 5 6 8 11 15 20 26 31 36 37 35 34 31 25 20 15 11 9 9 8 8 7 6 5 5 5 5 5 6 6 7 7 7 7 8 7 7 8 7 8 8 7 7 7 7 7 7 7 8 9 9 10 11 11 12 12 12 12 11 11 11 9 7 7 6 6
11 10 9 7 6 5 4 4 6 7 8 9 7 5 3 2 2 4 5 7 10 12 16 21 26 31 34 33 33 31 27 23 18 13 11 9 7 7 7 5 5 5 5 5 6 6 7 7 8 9 9 10 10 10 10 10 11 11 11 11 11 11 11 10 9 9 8 7 8 8 7 8 8 8 9 9 9 10 10 9 9 7 6 7 7 7
11 8 6 6 4 4 6 8 9 8 6 5 3 1 2 3 5 7 9 11 15 19 24 29 32 34 34 30 26 21 15 11 9 8 8 6 5 5 5 4 5 6 6 7 8 9 9 9 9 10 10 11 11 12 13 13 13 14 14 14 15 15 15 15 14 13 13 11 11 11 9 9 9 8 8 8 7 8 8 7 7 7 6 7 9 9
8 5 4 6 6 7 8 8 8 6 4 2 2 2 3 4 6 10 12 15 19 25 30 32 32 30 26 20 15 12 8 7 7 7 5 5 5 5 5 6 7 7 9 10 9 9 9 9 10 10 11 12 12 13 14 14 14 15 16 16 18 18 18 19 19 19 18 17 16 15 13 13 12 11 10 9 8 8 9 8 8 9 8 9 11 13
5 5 6 7 8 8 8 7 5 3 2 2 3 4 4 3 5 10 14 19 24 29 33 32 28 22 15 10 8 8 6 5 6 6 5 5 6 6 7 8 9 10 10 10 9 9 10 10 11 11 11 12 13 13 15 16 17 18 19 20 21 22 23 24 23 23 23 21 19 18 17 16 15 15 13 12 11 10 10 10 10 10 11 12 15 17
6 8 9 9 8 7 6 5 3 2 1 2 1 1 2 5 9 14 18 23 27 30 30 28 21 13 8 7 6 6 5 5 6 6 6 6 7 9 10 10 10 10 9 9 9 10 11 10 10 11 12 14 15 16 18 19 21 22 24 24 25 25 26 26 27 27 27 26 24 23 21 19 18 18 17 15 15 14 14 14 14 14 15 17 20 22
9 9 9 8 7 6 4 4 4 4 4 3 1 2 5 9 14 18 21 25 29 28 26 22 15 8 5 6 6 6 6 6 6 6 8 9 10 10 10 10 9 9 9 10 10 10 10 10 11 12 14 15 17 18 20 22 24 25 26 26 27 28 28 28 28 27 26 27 27 26 25 24 22 21 20 19 17 17 17 18 20 20 19 22 25 26
9 9 8 7 6 4 3 4 5 5 4 3 4 7 10 10 14 20 23 25 28 26 20 15 10 6 5 6 6 7 6 6 7 8 10 11 11 10 9 9 9 10 10 10 10 10 11 12 12 14 15 17 19 21 23 25 26 27 29 30 31 31 32 32 32 31 29 28 27 26 26 27 26 24 24 23 21 21 21 20 22 23 23 27 31 30
Height
5789 5789 5788 5786 5786 5785 5784 5783 5782 5780 5779 5777 5776 5774 5773 5771 5769 5767 5765 5763 5761 5758 5756 5754 5752 5751 5749 5746 5744 5740 5738 5736 5733 5731 5729 5727 5725 5722 5720 5717 5715 5712 5709 5706 5703 5700 5697 5694 5692 5689 5685 5682 5679 5677 5674 5671 5667 5665 5662 5659 5656 5653 5650 5647 5643 5640 5637 5633 5630 5628 5625 5622 5619 5617 5614 5611 5608 5605 5602 5599 5596 5593 5590 5588 5585 5583
5787 5787 5786 5784 5783 5782 5781 5780 5779 5777 5776 5774 5773 5771 5769 5767 5765 5763 5761 5760 5757 5754 5752 5750 5748 5747 5744 5742 5740 5736 5733 5732 5729 5727 5725 5722 5720 5717 5715 5712 5710 5706 5703 5700 5697 5694 5692 5689 5686 5683 5680 5677 5674 5671 5668 5665 5662 5659 5656 5652 5649 5646 5643 5640 5637 5633 5630 5627 5624 5621 5618 5615 5612 5609 5606 5604 5601 5598 5595 5592 5589 5586 5583 5581 5578 5575
5785 5785 5784 5782 5781 5780 5779 5777 5776 5774 5773 5771 5770 5768 5766 5764 5761 5759 5758 5756 5754 5750 5748 5746 5744 5743 5740 5738 5736 5732 5729 5727 5725 5723 5720 5718 5715 5712 5710 5707 5704 5701 5698 5695 5692 5689 5686 5683 5681 5677 5674 5671 5668 5665 5662 5659 5656 5653 5649 5646 5642 5639 5636 5633 5630 5626 5623 5620 5617 5614 5610 5608 5605 5602 5599 5596 5593 5590 5588 5585 5582 5578 5575 5573 5570 5568
5783 5782 5781 5780 5778 5777 5776 5775 5773 5771 5769 5768 5767 5764 5762 5760 5757 5755 5753 5751 5749 5746 5744 5741 5739 5738 5735 5732 5731 5729 5726 5723 5721 5718 5715 5712 5710 5707 5705 5701 5698 5695 5692 5689 5686 5683 5681 5678 5675 5672 5668 5665 5662 5658 5655 5652 5650 5646 5643 5640 5636 5633 5630 5627 5624 5620 5616 5613 5610 5607 5604 5600 5597 5594 5591 5588 5585 5582 5579 5576 5573 5570 5567 5564 5561 5559
5781 5780 5778 5777 5776 5774 5773 5772 5770 5768 5766 5765 5763 5761 5758 5756 5753 5751 5749 5747 5744 5742 5740 5737 5734 5733 5731 5727 5725 5723 5721 5718 5715 5712 5709 5707 5704 5701 5699 5696 5692 5689 5686 5683 5680 5677 5675 5672 5669 5666 5662 5659 5655 5652 5649 5646 5644 5640 5637 5634 5630 5627 5624 5621 5617 5614 5610 5606 5603 5600 5597 5593 5590 5587 5583 5580 5576 5573 5571 5568 5564 5562 5559 5556 5553 5550
5778 5777 5775 5774 5773 5772 5770 5769 5767 5765 5763 5761 5760 5758 5755 5752 5750 5747 5744 5742 5740 5737 5735 5733 5729 5727 5725 5722 5719 5717 5715 5713 5710 5707 5704 5701 5699 5696 5693 5690 5687 5683 5680 5677 5674 5671 5669 5666 5662 5659 5656 5652 5649 5646 5644 5641 5637 5634 5631 5628 5624 5621 5618 5614 5611 5607 5603 5600 5596 5592 5589 5586 5582 5579 5575 5571 5568 5565 5562 5559 5556 5552 5550 5548 5544 5541
5776 5774 5773 5771 5770 5769 5767 5765 5764 5761 5759 5757 5755 5754 5751 5749 5746 5743 5741 5738 5736 5733 5731 5728 5724 5722 5720 5717 5715 5713 5709 5707 5705 5702 5700 5696 5693 5690 5687 5684 5681 5678 5675 5672 5669 5666 5663 5660 5656 5652 5649 5646 5643 5640 5638 5635 5631 5628 5625 5622 5618 5615 5611 5608 5604 5600 5596 5593 5589 5585 5582 5578 5574 5571 5567 5563 5560 5557 5553 5550 5548 5544 5541 5539 5536 5533
5773 5771 5770 5769 5767 5766 5764 5762 5760 5758 5755 5753 5751 5749 5747 5745 5742 5739 5737 5734 5731 5729 5727 5725 5721 5718 5716 5712 5710 5709 5705 5701 5699 5697 5694 5690 5687 5684 5681 5678 5675 5672 5669 5666 5663 5660 5657 5654 5650 5647 5643 5640 5638 5635 5632 5629 5625 5622 5619 5615 5612 5608 5605 5601 5597 5593 5589 5585 5581 5577 5574 5570 5566 5562 5558 5554 5551 5549 5545 5541 5538 5535 5532 5529 5527 5524
5770 5769 5767 5766 5764 5762 5761 5758 5756 5754 5752 5750 5747 5745 5743 5741 5738 5735 5733 5730 5727 5724 5722 5721 5717 5714 5711 5707 5704 5702 5699 5696 5693 5691 5688 5683 5680 5677 5675 5672 5669 5666 5663 5660 5657 5654 5651 5648 5645 5642 5639 5635 5632 5629 5626 5623 5619 5616 5612 5608 5604 5601 5597 5594 5590 5586 5582 5577 5573 5569 5566 5562 5558 5554 5550 5546 5542 5539 5536 5532 5528 5525 5521 5519 5516 5514
5768 5766 5764 5763 5761 5759 5757 5755 5753 5750 5748 5746 5744 5741 5739 5736 5734 5731 5728 5725 5722 5719 5717 5715 5713 5709 5707 5704 5699 5694 5691 5689 5686 5683 5681 5677 5673 5670 5668 5665 5663 5659 5656 5654 5650 5647 5644 5642 5639 5636 5633 5630 5626 5623 5620 5616 5613 5609 5605 5601 5597 5593 5589 5586 5582 5578 5573 5569 5565 5561 5557 5553 5550 5545 5541 5538 5533 5529 5526 5523 5519 5515 5511 5508 5505 5503
5765 5763 5761 5759 5757 5755 5753 5751 5749 5746 5744 5742 5739 5737 5735 5732 5730 5727 5724 5721 5717 5714 5712 5710 5708 5704 5703 5701 5696 5691 5688 5683 5679 5677 5674 5671 5667 5664 5662 5659 5656 5653 5650 5647 5643 5640 5637 5634 5632 5629 5625 5622 5619 5616 5612 5609 5605 5601 5597 5593 5589 5585 5581 5577 5573 5569 5565 5561 5557 5553 5549 5544 5541 5536 5532 5529 5525 5520 5515 5512 5509 5505 5501 5497 5494 5491
5762 5760 5758 5756 5754 5752 5750 5747 5745 5743 5740 5738 5735 5733 5730 5727 5724 5721 5719 5716 5712 5709 5706 5704 5701 5699 5698 5695 5690 5688 5685 5679 5675 5671 5668 5665 5662 5659 5656 5653 5650 5647 5644 5640 5636 5633 5630 5627 5624 5621 5618 5615 5611 5608 5605 5601 5597 5594 5590 5586 5582 5577 5572 5568 5565 5561 5557 5552 5548 5544 5540 5535 5531 5526 5522 5518 5514 5510 5506 5502 5498 5495 5491 5487 5483 5480
5759 5757 5755 5753 5750 5748 5746 5744 5741 5739 5737 5734 5731 5728 5725 5722 5719 5715 5713 5710 5707 5703 5700 5698 5696 5694 5693 5690 5684 5681 5679 5674 5670 5666 5663 5660 5658 5655 5652 5648 5645 5641 5637 5634 5630 5627 5624 5622 5619 5615 5612 5608 5605 5601 5597 5594 5590 5586 5582 5578 5574 5569 5565 5560 5557 5553 5548 5544 5539 5535 5530 5526 5521 5516 5512 5508 5504 5500 5496 5492 5489 5485 5480 5477 5473 5470
5755 5754 5752 5749 5747 5745 5742 5740 5737 5734 5733 5730 5727 5724 5721 5717 5713 5710 5708 5705 5702 5698 5693 5692 5691 5689 5687 5685 5680 5676 5672 5668 5665 5661 5659 5656 5653 5650 5647 5643 5639 5635 5632 5628 5625 5622 5619 5616 5613 5609 5605 5601 5598 5594 5590 5586 5582 5578 5573 5569 5565 5561 5556 5552 5548 5544 5539 5535 5530 5525 5520 5516 5511 5507 5503 5499 5495 5491 5487 5483 5479 5475 5471 5466 5463 5459
5751 5750 5748 5746 5743 5741 5739 5736 5733 5730 5728 5726 5723 5719 5716 5713 5708 5705 5702 5699 5696 5693 5688 5686 5686 5683 5681 5679 5675 5671 5667 5663 5660 5656 5653 5650 5648 5645 5641 5638 5634 5630 5627 5623 5620 5617 5613 5609 5606 5602 5598 5594 5590 5586 5582 5578 5574 5569 5565 5561 5557 5552 5548 5543 5539 5535 5530 5525 5520 5515 5511 5507 5503 5498 5494 5490 5487 5482 5478 5473 5469 5465 5460 5456 5452 5448
5748 5746 5745 5743 5740 5737 5735 5732 5729 5726 5723 5720 5718 5714 5711 5708 5704 5700 5698 5694 5691 5687 5683 5681 5682 5680 5676 5673 5670 5666 5662 5658 5654 5651 5648 5645 5642 5639 5635 5632 5628 5625 5621 5617 5614 5610 5606 5603 5599 5595 5591 5587 5583 5579 5575 5571 5567 5563 5558 5553 5549 5544 5539 5535 5530 5525 5521 5516 5512 5507 5502 5498 5495 5491 5486 5482 5478 5474 5469 5465 5459 5454 5450 5445 5441 5437
5744 5742 5741 5738 5736 5733 5730 5727 5725 5721 5718 5715 5712 5708 5705 5702 5699 5695 5692 5690 5686 5682 5678 5676 5676 5675 5671 5666 5663 5660 5656 5652 5648 5645 5643 5640 5637 5633 5630 5626 5623 5619 5615 5610 5607 5604 5600 5597 5593 5589 5585 5580 5576 5572 5568 5565 5560 5556 5551 5546 5541 5535 5530 5526 5521 5517 5511 5507 5503 5498 5494 5490 5487 5483 5478 5474 5469 5465 5461 5456 5451 5445 5440 5436 5432 5428
5740 5738 5737 5735 5732 5729 5726 5723 5720 5717 5713 5709 5706 5703 5700 5696 5693 5690 5687 5685 5681 5676 5674 5670 5669 5671 5668 5661 5657 5654 5650 5646 5643 5640 5638 5635 5631 5627 5623 5620 5616 5612 5608 5604 5601 5597 5594 5590 5586 5582 5578 5573 5569 5564 5560 5556 5551 5546 5541 5536 5532 5527 5522 5516 5512 5507 5502 5498 5494 5490 5486 5482 5478 5474 5470 5466 5461 5456 5452 5447 5442 5437 5432 5427 5423 5419
5736 5734 5733 5732 5728 5724 5722 5718 5715 5712 5709 5705 5702 5699 5695 5691 5688 5684 5682 5680 5676 5670 5669 5666 5663 5665 5664 5659 5654 5649 5645 5641 5638 5636 5633 5630 5626 5621 5618 5615 5611 5607 5603 5599 5595 5591 5588 5583 5579 5574 5570 5565 5560 5555 5551 5546 5542 5537 5532 5527 5522 5518 5513 5507 5502 5497 5493 5489 5486 5482 5478 5474 5470 5466 5461 5457 5453 5448 5443 5438 5433 5428 5424 5419 5415 5411
5733 5730 5728 5727 5724 5719 5717 5713 5709 5707 5705 5702 5698 5695 5692 5688 5685 5680 5677 5676 5671 5665 5662 5659 5657 5657 5656 5653 5649 5644 5639 5636 5633 5631 5628 5625 5621 5616 5613 5610 5605 5601 5596 5592 5588 5584 5580 5576 5571 5565 5561 5556 5551 5546 5542 5538 5533 5528 5523 5518 5513 5508 5503 5498 5493 5488 5484 5480 5477 5473 5469 5465 5461 5457 5453 5448 5444 5439 5434 5429 5425 5420 5415 5411 5406 5402
5729 5726 5723 5721 5718 5715 5712 5709 5705 5702 5699 5697 5694 5691 5688 5684 5681 5677 5674 5673 5669 5664 5659 5654 5650 5652 5650 5647 5643 5638 5633 5630 5627 5625 5622 5617 5613 5609 5605 5601 5597 5592 5587 5583 5579 5575 5571 5566 5561 5557 5552 5547 5543 5538 5533 5529 5524 5519 5513 5508 5503 5497 5492 5488 5484 5480 5476 5472 5468 5464 5460 5456 5452 5448 5444 5440 5435 5430 5425 5420 5416 5412 5407 5402 5398 5394
5724 5721 5719 5716 5713 5710 5707 5704 5701 5699 5695 5692 5689 5686 5683 5680 5677 5672 5668 5667 5664 5661 5659 5652 5647 5648 5647 5642 5639 5634 5629 5625 5622 5619 5615 5610 5606 5602 5598 5593 5588 5583 5579 5574 5570 5565 5562 5557 5553 5549 5544 5539 5534 5530 5525 5519 5514 5509 5503 5498 5492 5487 5482 5478 5474 5471 5467 5464 5459 5456 5452 5447 5443 5438 5434 5430 5426 5422 5417 5412 5408 5404 5399 5395 5390 5386
5720 5717 5714 5712 5709 5706 5703 5699 5697 5695 5692 5688 5685 5682 5678 5676 5673 5669 5664 5660 5657 5655 5654 5649 5643 5642 5640 5636 5632 5629 5623 5619 5617 5614 5609 5604 5601 5596 5591 5586 5581 5576 5571 5567 5562 5558 5554 5549 5545 5540 5535 5530 5525 5520 5515 5510 5504 5498 5493 5488 5483 5477 5473 5469 5465 5462 5458 5455 5451 5447 5443 5439 5434 5429 5425 5421 5417 5413 5409 5404 5400 5395 5391 5387 5383 5379
5715 5713 5710 5707 5705 5703 5700 5696 5694 5692 5688 5685 5682 5678 5675 5672 5669 5666 5662 5657 5652 5650 5648 5644 5639 5637 5632 5627 5625 5621 5614 5610 5609 5606 5602 5598 5595 5590 5584 5579 5574 5569 5565 5560 5555 5551 5546 5541 5537 5532 5527 5522 5517 5511 5506 5500 5494 5489 5484 5478 5473 5468 5464 5460 5457 5453 5448 5445 5441 5438 5434 5430 5425 5421 5416 5412 5408 5404 5400 5396 5392 5388 5383 5379 5375 5371
5711 5708 5705 5702 5700 5698 5695 5692 5689 5687 5685 5681 5678 5674 5671 5668 5665 5662 5659 5654 5649 5647 5644 5639 5637 5634 5627 5622 5620 5615 5609 5605 5602 5599 5595 5592 5588 5584 5579 5573 5566 5562 5557 5553 5548 5543 5538 5533 5528 5523 5517 5512 5507 5502 5496 5491 5485 5479 5474 5468 5463 5458 5455 5450 5447 5443 5439 5436 5432 5428 5425 5421 5417 5413 5408 5405 5401 5396 5392 5389 5385 5381 5376 5371 5367 5363
5708 5705 5701 5697 5695 5692 5690 5687 5684 5682 5680 5677 5674 5671 5668 5665 5662 5658 5655 5650 5645 5641 5638 5633 5631 5629 5624 5618 5615 5610 5606 5602 5599 5595 5591 5587 5582 5578 5572 5566 5560 5554 5548 5544 5539 5534 5529 5523 5518 5512 5506 5501 5496 5491 5485 5480 5475 5469 5463 5458 5453 5448 5445 5441 5437 5434 5430 5427 5423 5420 5416 5412 5409 5404 5400 5396 5393 5389 5385 5381 5377 5373 5369 5364 5359 5356
5705 5702 5698 5695 5692 5688 5685 5682 5680 5677 5675 5672 5669 5666 5664 5661 5658 5654 5650 5646 5641 5636 5633 5628 5623 5621 5619 5613 5608 5604 5600 5596 5593 5589 5585 5580 5576 5571 5564 5558 5551 5545 5539 5534 5528 5523 5517 5512 5507 5502 5496 5490 5485 5480 5474 5469 5464 5458 5453 5448 5443 5438 5435 5432 5428 5424 5421 5418 5414 5410 5407 5403 5400 5396 5391 5387 5384 5381 5377 5373 5369 5365 5361 5357 5353 5348
5701 5699 5696 5693 5690 5686 5682 5678 5675 5672 5670 5667 5664 5662 5659 5656 5653 5649 5645 5641 5636 5631 5628 5624 5618 5614 5613 5608 5601 5597 5593 5589 5585 5581 5576 5572 5567 5562 5556 5549 5542 5536 5530 5525 5519 5512 5507 5502 5496 5491 5486 5480 5473 5468 5463 5457 5452 5447 5443 5438 5433 5429 5425 5421 5418 5415 5411 5408 5404 5401 5397 5394 5391 5387 5383 5379 5375 5372 5368 5365 5361 5357 5353 5349 5345 5341
5697 5696 5693 5690 5688 5683 5678 5675 5671 5668 5665 5662 5660 5657 5654 5650 5647 5644 5640 5636 5631 5626 5622 5619 5614 5609 5605 5602 5597 5591 5585 5581 5577 5573 5568 5563 5558 5552 5546 5540 5534 5528 5522 5516 5511 5504 5498 5492 5486 5480 5474 5468 5462 5456 5451 5446 5441 5436 5431 5427 5422 5418 5414 5410 5407 5404 5401 5398 5394 5390 5387 5383 5380 5377 5374 5370 5366 5363 5359 5356 5353 5349 5345 5341 5337 5334
5693 5692 5689 5686 5685 5682 5676 5672 5668 5665 5661 5658 5655 5652 5649 5645 5641 5638 5634 5630 5625 5621 5616 5612 5609 5605 5599 5595 5591 5585 5578 5573 5569 5566 5562 5555 5549 5543 5537 5532 5526 5520 5514 5507 5501 5495 5488 5482 5475 5468 5462 5456 5451 5445 5440 5435 5430 5425 5419 5414 5410 5406 5403 5399 5396 5393 5390 5387 5383 5380 5376 5373 5369 5367 5364 5361 5357 5354 5350 5347 5344 5341 5337 5333 5329 5326
5689 5687 5684 5682 5681 5678 5674 5669 5665 5662 5658 5654 5651 5648 5643 5640 5636 5632 5629 5625 5620 5616 5611 5607 5604 5600 5595 5591 5586 5579 5572 5565 5560 5558 5555 5549 5542 5534 5528 5523 5518 5511 5504 5497 5490 5484 5478 5471 5464 5457 5451 5445 5440 5434 5428 5422 5418 5414 5408 5402 5398 5394 5391 5387 5384 5381 5379 5375 5372 5369 5366 5362 5359 5356 5353 5351 5347 5344 5341 5338 5335 5332 5328 5325 5321 5318
5685 5683 5680 5677 5675 5673 5670 5666 5661 5657 5654 5650 5647 5643 5639 5635 5631 5627 5624 5619 5614 5609 5606 5602 5597 5593 5589 5585 5581 5575 5567 5557 5550 5547 5546 5542 5536 5528 5519 5512 5506 5500 5493 5485 5479 5473 5467 5461 5454 5447 5439 5433 5427 5422 5416 5409 5404 5402 5398 5392 5388 5383 5379 5376 5372 5369 5367 5364 5360 5357 5354 5352 5349 5346 5343 5340 5337 5334 5331 5329 5326 5323 5319 5316 5313 5310
5681 5678 5675 5672 5670 5668 5665 5661 5657 5651 5648 5645 5642 5638 5635 5631 5627 5623 5619 5615 5609 5603 5599 5596 5590 5584 5580 5576 5572 5569 5564 5555 5545 5537 5532 5528 5523 5517 5511 5502 5494 5487 5480 5473 5466 5460 5454 5448 5442 5434 5426 5418 5411 5406 5401 5395 5389 5387 5384 5380 5376 5372 5367 5365 5361 5357 5354 5352 5349 5345 5343 5341 5339 5336 5333 5330 5327 5324 5321 5319 5317 5313 5310 5307 5304 5301
5678 5675 5671 5668 5665 5662 5660 5656 5652 5648 5643 5640 5637 5634 5630 5625 5622 5618 5614 5609 5604 5597 5593 5589 5583 5578 5573 5568 5563 5559 5556 5550 5540 5529 5521 5516 5509 5502 5498 5493 5484 5475 5468 5460 5452 5446 5440 5433 5426 5419 5411 5404 5397 5392 5387 5382 5376 5373 5370 5366 5363 5360 5355 5352 5350 5347 5343 5340 5337 5334 5332 5330 5328 5325 5323 5319 5316 5313 5311 5309 5307 5304 5301 5298 5295 5293
5675 5671 5668 5664 5661 5657 5654 5651 5647 5643 5639 5635 5632 5629 5625 5620 5616 5613 5609 5602 5596 5592 5588 5584 5577 5571 5566 5561 5554 5548 5544 5540 5534 5523 5512 5506 5501 5491 5484 5479 5472 5464 5457 5448 5438 5430 5424 5417 5410 5403 5397 5392 5386 5380 5376 5371 5366 5362 5359 5355 5351 5348 5344 5341 5339 5336 5332 5329 5326 5323 5321 5319 5317 5314 5311 5308 5305 5302 5300 5298 5296 5294 5291 5289 5286 5284
5671 5668 5664 5660 5657 5653 5649 5645 5641 5637 5634 5632 5628 5624 5620 5615 5610 5606 5604 5598 5591 5586 5582 5576 5570 5563 5556 5550 5545 5539 5534 5531 5528 5518 5503 5493 5489 5481 5472 5465 5457 5449 5443 5434 5424 5415 5409 5404 5398 5391 5385 5380 5376 5371 5366 5362 5357 5353 5350 5346 5341 5337 5334 5330 5327 5324 5321 5318 5316 5313 5310 5308 5305 5303 5299 5297 5295 5293 5290 5287 5285 5284 5281 5279 5277 5274
5667 5664 5659 5655 5652 5648 5644 5641 5637 5632 5630 5628 5624 5619 5614 5609 5603 5597 5594 5590 5584 5578 5572 5566 5560 5554 5547 5542 5536 5530 5524 5519 5518 5512 5497 5485 5479 5471 5462 5454 5444 5435 5429 5422 5415 5407 5399 5392 5387 5382 5375 5370 5366 5361 5356 5352 5349 5344 5341 5338 5333 5328 5325 5321 5317 5314 5310 5308 5305 5302 5300 5297 5294 5291 5288 5285 5284 5282 5280 5277 5275 5274 5271 5268 5266 5264
5663 5660 5655 5651 5648 5644 5640 5636 5632 5628 5625 5621 5617 5612 5607 5602 5597 5590 5585 5581 5577 5571 5564 5558 5553 5547 5539 5533 5526 5520 5513 5506 5506 5503 5489 5476 5469 5460 5450 5444 5435 5426 5419 5413 5407 5401 5394 5386 5380 5375 5368 5362 5358 5353 5347 5343 5339 5335 5332 5329 5324 5320 5316 5311 5307 5304 5300 5297 5294 5291 5289 5285 5282 5279 5277 5274 5272 5271 5269 5267 5265 5263 5261 5258 5256 5254
5660 5656 5652 5648 5644 5640 5636 5632 5627 5623 5620 5616 5612 5607 5603 5598 5592 5585 5580 5577 5573 5565 5556 5550 5546 5539 5531 5523 5515 5508 5499 5489 5487 5486 5477 5465 5457 5449 5439 5432 5427 5420 5414 5408 5401 5395 5389 5382 5374 5368 5362 5355 5350 5346 5340 5335 5330 5326 5322 5318 5314 5310 5306 5302 5298 5294 5290 5287 5283 5280 5277 5274 5271 5268 5265 5263 5261 5259 5257 5256 5254 5252 5250 5248 5245 5244
5656 5652 5648 5644 5641 5637 5633 5629 5624 5619 5616 5613 5608 5603 5599 5594 5586 5579 5574 5571 5568 5562 5551 5540 5534 5527 5520 5512 5504 5496 5487 5474 5465 5464 5459 5450 5444 5438 5429 5422 5416 5410 5404 5399 5393 5387 5382 5376 5368 5361 5355 5348 5342 5337 5332 5327 5322 5317 5312 5308 5303 5299 5295 5291 5287 5284 5280 5277 5273 5270 5267 5263 5260 5257 5254 5251 5249 5248 5246 5244 5243 5241 5239 5237 5235 5233
5652 5648 5645 5641 5637 5633 5629 5625 5620 5616 5612 5609 5603 5597 5593 5589 5581 5574 5566 5559 5555 5552 5545 5534 5523 5515 5508 5501 5492 5484 5478 5468 5457 5450 5445 5438 5432 5428 5421 5414 5407 5401 5393 5387 5381 5376 5372 5368 5361 5354 5347 5340 5333 5328 5323 5317 5313 5308 5303 5298 5293 5288 5284 5280 5276 5272 5269 5266 5263 5260 5256 5253 5249 5246 5242 5240 5238 5237 5235 5233 5231 5230 5228 5226 5224 5222
5648 5644 5641 5637 5633 5629 5625 5621 5616 5611 5607 5603 5598 5591 5585 5580 5573 5566 5560 5552 5542 5536 5533 5526 5515 5504 5496 5491 5484 5475 5468 5461 5452 5443 5437 5431 5424 5418 5412 5406 5400 5394 5388 5382 5375 5368 5363 5360 5354 5347 5340 5333 5325 5319 5313 5308 5304 5298 5292 5287 5282 5277 5273 5269 5265 5261 5258 5255 5252 5249 5245 5242 5238 5234 5231 5229 5226 5225 5225 5223 5220 5218 5217 5215 5213 5211
5643 5639 5636 5632 5629 5625 5620 5615 5610 5604 5599 5594 5590 5584 5577 5571 5564 5556 5551 5546 5538 5527 5521 5516 5508 5497 5487 5482 5477 5468 5460 5453 5446 5438 5431 5425 5418 5411 5405 5398 5392 5386 5380 5374 5368 5361 5355 5350 5345 5338 5331 5324 5316 5309 5302 5297 5293 5289 5282 5276 5271 5265 5260 5257 5253 5249 5246 5243 5240 5237 5234 5230 5226 5223 5220 5218 5215 5214 5213 5211 5209 5207 5206 5204 5202 5200
5639 5635 5631 5627 5624 5620 5615 5610 5603 5597 5591 5586 5580 5574 5568 5562 5556 5548 5541 5537 5532 5523 5514 5507 5499 5489 5478 5470 5463 5457 5450 5443 5437 5431 5424 5419 5413 5406 5400 5393 5385 5379 5373 5366 5359 5353 5346 5340 5335 5329 5322 5314 5305 5298 5292 5284 5279 5276 5271 5264 5258 5253 5248 5243 5239 5236 5233 5230 5227 5224 5220 5217 5214 5211 5208 5206 5203 5202 5201 5199 5198 5196 5194 5192 5190 5189
5635 5631 5628 5624 5619 5615 5610 5606 5600 5593 5587 5581 5574 5569 5564 5557 5551 5544 5535 5527 5520 5512 5503 5494 5486 5477 5468 5460 5452 5446 5439 5433 5428 5423 5417 5412 5406 5399 5393 5386 5378 5371 5364 5358 5351 5344 5336 5330 5324 5318 5312 5305 5295 5288 5281 5273 5266 5262 5257 5251 5244 5239 5234 5229 5225 5222 5219 5215 5212 5210 5206 5203 5201 5199 5196 5193 5191 5189 5189 5187 5186 5185 5183 5181 5179 5177
5632 5628 5623 5619 5615 5610 5605 5601 5596 5590 5584 5578 5572 5566 5559 5552 5545 5537 5529 5520 5510 5501 5491 5481 5472 5464 5458 5451 5444 5438 5431 5425 5421 5417 5410 5404 5398 5392 5384 5378 5372 5364 5356 5349 5343 5335 5327 5320 5313 5307 5301 5294 5285 5276 5269 5261 5252 5245 5241 5236 5230 5224 5219 5215 5211 5208 5204 5201 5197 5194 5191 5189 5187 5185 5183 5181 5178 5177 5176 5175 5173 5173 5172 5170 5168 5166
5628 5624 5619 5615 5611 5607 5603 5598 5594 5588 5581 5575 5569 5562 5555 5547 5538 5529 5521 5512 5503 5492 5482 5472 5463 5455 5449 5443 5437 5431 5425 5418 5412 5408 5403 5396 5389 5383 5376 5370 5363 5357 5348 5340 5332 5325 5318 5310 5302 5295 5288 5281 5274 5265 5256 5248 5239 5230 5224 5218 5213 5207 5203 5199 5195 5191 5188 5185 5181 5178 5176 5174 5172 5171 5170 5168 5166 5164 5163 5162 5161 5160 5160 5158 5156 5154
5624 5620 5616 5612 5607 5602 5599 5595 5591 5585 5576 5568 5561 5555 5548 5541 5532 5521 5510 5501 5493 5484 5475 5466 5457 5449 5443 5438 5432 5426 5420 5413 5405 5400 5395 5388 5381 5375 5368 5361 5354 5347 5341 5332 5324 5315 5308 5300 5292 5284 5276 5268 5260 5252 5243 5234 5225 5216 5208 5202 5196 5190 5186 5182 5178 5174 5171 5167 5164 5162 5160 5158 5157 5156 5156 5155 5153 5151 5150 5150 5149 5148 5148 5147 5145 5143
5621 5616 5612 5608 5603 5597 5593 5589 5586 5581 5574 5565 5556 5549 5540 5532 5524 5514 5503 5493 5485 5477 5471 5464 5454 5444 5436 5430 5425 5419 5413 5407 5400 5393 5387 5380 5373 5366 5359 5352 5345 5337 5330 5323 5315 5306 5296 5287 5279 5271 5263 5255 5246 5237 5228 5219 5210 5201 5193 5186 5179 5173 5168 5164 5161 5157 5153 5150 5148 5146 5144 5143 5143 5142 5141 5141 5140 5139 5138 5137 5137 5137 5137 5136 5134 5132
5616 5612 5607 5602 5597 5592 5586 5581 5575 5571 5566 5558 5549 5542 5533 5524 5515 5507 5498 5489 5480 5472 5466 5462 5455 5446 5435 5425 5418 5412 5406 5400 5393 5387 5380 5372 5364 5357 5350 5343 5336 5329 5321 5313 5306 5297 5287 5277 5266 5256 5248 5239 5229 5221 5212 5203 5195 5186 5178 5170 5162 5156 5151 5146 5143 5141 5137 5133 5131 5130 5128 5128 5128 5127 5127 5127 5127 5126 5126 5125 5125 5125 5125 5125 5124 5123
5611 5606 5601 5596 5590 5584 5580 5574 5568 5562 5557 5549 5540 5533 5525 5517 5509 5500 5491 5483 5475 5467 5461 5455 5450 5445 5437 5426 5416 5408 5401 5394 5387 5380 5374 5366 5357 5349 5342 5333 5324 5316 5309 5301 5293 5285 5277 5268 5257 5247 5236 5226 5215 5205 5195 5186 5178 5170 5162 5154 5146 5140 5134 5129 5125 5124 5121 5118 5116 5115 5113 5114 5114 5113 5113 5114 5114 5114 5115 5115 5114 5114 5114 5115 5115 5114